TimeCST,TemperatureF,Dew PointF,Humidity,Sea Level PressureIn,VisibilityMPH,Wind Direction,Wind SpeedMPH,Gust SpeedMPH,PrecipitationIn,Events,Conditions,WindDirDegrees,DateUTC
12:35 AM,21.2,14.0,74,30.28,10.0,NNE,5.8,-,N/A,,Clear,30,2013-01-15 06:35:00
12:55 AM,19.4,14.0,80,30.27,10.0,ENE,4.6,-,N/A,,Clear,60,2013-01-15 06:55:00
1:15 AM,19.4,14.0,80,30.27,10.0,NE,3.5,-,N/A,,Clear,50,2013-01-15 07:15:00
1:36 AM,19.4,14.0,80,30.26,10.0,NE,3.5,-,N/A,,Clear,50,2013-01-15 07:36:00
1:55 AM,19.4,14.0,80,30.26,10.0,NE,4.6,-,N/A,,Clear,40,2013-01-15 07:55:00
2:15 AM,19.4,14.0,80,30.27,10.0,NE,4.6,-,N/A,,Clear,50,2013-01-15 08:15:00
2:35 AM,19.4,12.2,74,30.27,10.0,NNE,5.8,-,N/A,,Clear,30,2013-01-15 08:35:00
2:55 AM,19.4,14.0,80,30.25,10.0,NE,5.8,-,N/A,,Clear,40,2013-01-15 08:55:00
3:15 AM,19.4,14.0,80,30.25,10.0,NE,4.6,-,N/A,,Clear,40,2013-01-15 09:15:00
3:35 AM,19.4,12.2,74,30.25,10.0,NNE,4.6,-,N/A,,Clear,30,2013-01-15 09:35:00
3:56 AM,19.4,14.0,80,30.24,10.0,NE,4.6,-,N/A,,Clear,40,2013-01-15 09:56:00
4:15 AM,19.4,12.2,74,30.24,10.0,NE,4.6,-,N/A,,Clear,50,2013-01-15 10:15:00
4:55 AM,17.6,14.0,86,30.24,10.0,NE,3.5,-,N/A,,Clear,40,2013-01-15 10:55:00
5:15 AM,17.6,12.2,79,30.24,10.0,NNE,5.8,-,N/A,,Clear,20,2013-01-15 11:15:00
5:35 AM,17.6,12.2,79,30.23,10.0,NNE,5.8,-,N/A,,Clear,30,2013-01-15 11:35:00
5:55 AM,19.4,14.0,80,30.23,10.0,NE,3.5,-,N/A,,Clear,50,2013-01-15 11:55:00
6:35 AM,19.4,15.8,86,30.23,10.0,ENE,4.6,-,N/A,,Mostly Cloudy,60,2013-01-15 12:35:00
6:55 AM,19.4,12.2,74,30.25,10.0,ENE,3.5,-,N/A,,Mostly Cloudy,60,2013-01-15 12:55:00
7:15 AM,19.4,14.0,80,30.24,10.0,Calm,Calm,-,N/A,,Scattered Clouds,0,2013-01-15 13:15:00
7:35 AM,21.2,15.8,80,30.22,10.0,ENE,5.8,-,N/A,,Clear,70,2013-01-15 13:35:00
7:55 AM,21.2,15.8,80,30.21,10.0,ENE,5.8,-,N/A,,Scattered Clouds,60,2013-01-15 13:55:00
8:15 AM,21.2,15.8,80,30.25,10.0,ENE,4.6,-,N/A,,Mostly Cloudy,70,2013-01-15 14:15:00
8:55 AM,21.2,14.0,74,30.28,10.0,NNE,5.8,-,N/A,,Overcast,30,2013-01-15 14:55:00
9:15 AM,23.0,14.0,68,30.28,10.0,East,5.8,-,N/A,,Overcast,80,2013-01-15 15:15:00
9:55 AM,24.8,14.0,64,30.25,10.0,East,6.9,-,N/A,,Overcast,90,2013-01-15 15:55:00
10:15 AM,24.8,14.0,64,30.26,10.0,ENE,8.1,-,N/A,,Overcast,70,2013-01-15 16:15:00
10:35 AM,24.8,12.2,59,30.24,10.0,East,8.1,-,N/A,,Overcast,80,2013-01-15 16:35:00
11:15 AM,26.6,12.2,55,30.22,10.0,East,9.2,-,N/A,,Overcast,100,2013-01-15 17:15:00
11:35 AM,28.4,14.0,55,30.20,10.0,East,9.2,-,N/A,,Mostly Cloudy,90,2013-01-15 17:35:00
12:15 PM,32.0,8.6,38,30.18,10.0,East,9.2,-,N/A,,Partly Cloudy,90,2013-01-15 18:15:00
12:35 PM,32.0,12.2,44,30.16,10.0,East,9.2,-,N/A,,Clear,80,2013-01-15 18:35:00
12:55 PM,32.0,12.2,44,30.16,10.0,East,6.9,-,N/A,,Clear,80,2013-01-15 18:55:00
1:35 PM,33.8,14.0,44,30.14,10.0,NE,5.8,-,N/A,,Mostly Cloudy,50,2013-01-15 19:35:00
1:55 PM,33.8,12.2,41,30.14,10.0,NNE,5.8,-,N/A,,Overcast,30,2013-01-15 19:55:00
2:15 PM,33.8,12.2,41,30.13,10.0,NE,8.1,-,N/A,,Overcast,50,2013-01-15 20:15:00
2:35 PM,33.8,14.0,44,30.12,10.0,ENE,5.8,-,N/A,,Overcast,60,2013-01-15 20:35:00
2:55 PM,33.8,12.2,41,30.14,10.0,NE,6.9,-,N/A,,Overcast,40,2013-01-15 20:55:00
3:15 PM,33.8,14.0,44,30.14,10.0,NE,5.8,-,N/A,,Overcast,40,2013-01-15 21:15:00
3:35 PM,33.8,15.8,48,30.15,10.0,NNE,8.1,-,N/A,,Overcast,20,2013-01-15 21:35:00
3:55 PM,33.8,17.6,52,30.16,10.0,NNE,8.1,-,N/A,,Overcast,20,2013-01-15 21:55:00
4:35 PM,32.0,15.8,51,30.16,10.0,NNE,6.9,-,N/A,,Mostly Cloudy,20,2013-01-15 22:35:00
4:55 PM,32.0,15.8,51,30.16,10.0,ENE,6.9,-,N/A,,Mostly Cloudy,60,2013-01-15 22:55:00
5:35 PM,32.0,15.8,51,30.16,10.0,NNE,4.6,-,N/A,,Overcast,30,2013-01-15 23:35:00
5:55 PM,30.2,15.8,55,30.16,10.0,NNE,4.6,-,N/A,,Overcast,30,2013-01-15 23:55:00
6:15 PM,32.0,15.8,51,30.17,10.0,NE,3.5,-,N/A,,Overcast,40,2013-01-16 00:15:00
6:35 PM,30.2,15.8,55,30.17,10.0,NE,3.5,-,N/A,,Overcast,40,2013-01-16 00:35:00
6:55 PM,30.2,15.8,55,30.17,10.0,North,6.9,-,N/A,,Overcast,10,2013-01-16 00:55:00
7:35 PM,30.2,19.4,64,30.16,10.0,North,8.1,-,N/A,,Overcast,360,2013-01-16 01:35:00
7:55 PM,30.2,19.4,64,30.16,10.0,North,8.1,-,N/A,,Overcast,350,2013-01-16 01:55:00
8:35 PM,28.4,21.2,74,30.14,10.0,North,6.9,-,N/A,,Scattered Clouds,360,2013-01-16 02:35:00
8:55 PM,26.6,21.2,80,30.14,10.0,North,4.6,-,N/A,,Clear,350,2013-01-16 02:55:00
9:15 PM,26.6,21.2,80,30.15,10.0,North,5.8,-,N/A,,Clear,350,2013-01-16 03:15:00
9:36 PM,26.6,21.2,80,30.16,10.0,NNW,6.9,-,N/A,,Clear,340,2013-01-16 03:36:00
9:55 PM,26.6,19.4,74,30.16,10.0,North,5.8,-,N/A,,Clear,350,2013-01-16 03:55:00
10:15 PM,24.8,19.4,80,30.16,10.0,North,3.5,-,N/A,,Partly Cloudy,10,2013-01-16 04:15:00
10:55 PM,24.8,19.4,80,30.15,10.0,North,4.6,-,N/A,,Clear,10,2013-01-16 04:55:00
11:15 PM,24.8,19.4,80,30.14,10.0,NNW,3.5,-,N/A,,Clear,340,2013-01-16 05:15:00
11:35 PM,23.0,17.6,80,30.14,10.0,Calm,Calm,-,N/A,,Clear,0,2013-01-16 05:35:00